Kezdőlap
METAR-TAF:

METAR-TAF

Repülőterek :

Knoxville Municipal Airport

Knoxville, Iowa, Amerikai Egyesült Államok

földrajzi szélesség: 41-18N, földrajzi hosszúság: 093-07W, magasság: 283 m

Jelenlegi meteorológiai megfigyelések

A jelentés 24 perccel ezelõtt készült, 16:55 UTC
Délkeleti szél 8 kt
Hőmérséklet 28°C
Páratartalom 70%
Légköri nyomás 1018 hPa
Látótávolság: 16.1 km
Kevés felhő 2300 lábon

METAR: KOXV 131655Z AUTO 14008KT 10SM FEW023 28/22 A3005 RMK AO2

Idő: 12:19 (17:19 UTC)


TAF: hiányzik

Meteorológiai megfigyelések és előrejelzések több, mint 4000 repülőtéren (METAR és TAF jelentéseket).

A térképen piros és sárga pontok jelzik az elérhető meteorológiai állomásokat.

Mozgassa az egeret a pont fölött, hogy megjelenjen az állomás neve.

Azután kattintson az időjárási megfigyelések és előrejelzések megtekintéséhez.

A térkép megváltoztatása: kattintson a fekete keresztel jelölt zöld gombra ráközelítéshez, a vonallal jelölt zöld gombra távolításhoz, vagy a zöld nyilakra a szomszédos térképek eléréséhez.


METAR-TAF: